Skip Page Navigation
NASA JPL Caltech
NASA Logo - Jet Propulsion Laboratory + View the NASA Portal
+ Center for Near-Earth Object Studies
JPL Home Earth Solar System Stars & Galaxies Technology
JPL Solar System Dynamics
BODIES ORBITS EPHEMERIDES TOOLS PHYSICAL DATA DISCOVERY FAQ SITE MAP
JPL Small-Body Database Browser
Search: [ help ]  
48962 (1998 QH31)
Classification: Main-belt Asteroid          SPK-ID: 2048962
Ephemeris | Orbit Diagram | Orbital Elements | Mission Design | Physical Parameters | Discovery Circumstances ]

[ show orbit diagram ]
Orbital Elements at Epoch 2459000.5 (2020-May-31.0) TDB
Reference: JPL 15 (heliocentric ecliptic J2000)
 Element Value Uncertainty (1-sigma)   Units 
e .1863429320940964 4.9e-08  
a 2.374620448381534 9.3327e-09 au
q 1.932126711419521 1.1739e-07 au
i 3.927598614789474 3.9427e-06 deg
node 107.8456151338418 7.3667e-05 deg
peri 204.5760981638219 7.465e-05 deg
M 355.0115074570355 1.175e-05 deg
tp 2459019.020664234656
(2020-Jun-18.52066423)
4.3587e-05 TDB
period 1336.563915261233
3.66
7.8794e-06
2.157e-08
d
yr
n .2693473883960406 1.5879e-09 deg/d
Q 2.817114185343547 1.1072e-08 au
  Orbit Determination Parameters
   # obs. used (total)      838  
   data-arc span      8120 days (22.23 yr)  
   first obs. used      1998-07-31  
   last obs. used      2020-10-23  
   planetary ephem.      DE431  
   SB-pert. ephem.      SB431-N16  
   condition code      0  
   norm. resid. RMS      .54464  
   source      ORB  
   producer      Otto Matic  
   solution date      2020-Nov-12 23:35:00  

Additional Information
 Earth MOID = .918709 au 
 Jupiter MOID = 2.4535 au 
 T_jup = 3.516 
[ show covariance matrix ]

Ephemeris | Orbit Diagram | Orbital Elements | Mission Design | Physical Parameters | Discovery Circumstances ]

Physical Parameter Table
Parameter Symbol Value Units Sigma Reference Notes
absolute magnitude H 16.0   n/a MPO432047  

48962 (1998 QH31)          Discovered 1998-Aug-17 by LINEAR at Socorro
Reference: 20021120/Numbers.arcLast Updated: 2004-04-19

Alternate Designations
 1998 QH31 = 1999 XE254 
Ephemeris | Orbit Diagram | Orbital Elements | Mission Design | Physical Parameters | Discovery Circumstances ]
ABOUT SSD CREDITS/AWARDS PRIVACY/COPYRIGHT GLOSSARY LINKS
FirstGov 2020-Dec-02 01:54 UT
(server date/time)  
NASA Home Page
Site Manager:   Ryan S. Park
Webmaster  Alan B. Chamberlin